Погода в Шарлотта-Амалии

Американские Виргинские острова     18°20′38″N   64°56′09″W
темп.,
°C
ветер,
м/с
пор.,
м/с
влажн.,
%
обл.,
%
осадки,
мм/ч
давл.,
гПа
погр.,
м
22 апреля, чт
чт2223:00+26в897768 0.3 1017903
02:00+26в897498 0.7 10161049
05:00+26в997286 0.4 10161110
08:00+26в99702 0.4 10171095
11:00+26вюв89745 0.1 10171010
14:00+26вюв787721 0.8 1016739
17:00+26в89796 3.6 1014663
20:00+26в67765 4.4 1016827
23 апреля, пт
пт2323:00+26в787119 0.4 10171013
02:00+26в78755 0.5 10151011
05:00+26вюв787643 1.4 1015797
08:00+26в897687 3.4 1017747
11:00+27вюв77690 0.5 1017996
14:00+26вюв67761 1.1 1015711
17:00+26вюв55730 0.2 1015844
20:00+26в66740 0.2 1016789
24 апреля, сб
сб2423:00+26в88779 0.2 1017917
02:00+26в77720 0.3 1015984
05:00+26в77683 0.0 10151106
08:00+26в77660 0.0 10181162
11:00+26в676436 0.0 10181028
14:00+26в66615 0.0 1016942
17:00+26в66615 0.0 1015942
20:00+26в77674 0.0 1016980
25 апреля, вс
вс2523:00+26в89740 0.1 10171007
02:00+26в88690 0.1 10151100
05:00+26в787392 0.1 10151055
08:00+26в78735 0.8 10171036
11:00+26вюв89695 0.0 10171112
14:00+26вюв67725 0.0 10151018
17:00+26в66671 0.0 1014882
20:00+26в78715 0.0 1015887
26 апреля, пн
пн2623:00+26всв897426 0.0 1016947
02:00+26всв997936 0.5 1014843
05:00+26в998095 2.9 1014791
08:00+26вюв9107257 6.2 10151182
11:00+26вюв89702 0.1 10161074
14:00+27вюв67681 0.1 10141159
17:00+26в56750 0.3 1013738
20:00+26в66755 1.1 1014868